Location: Newark
(41.6500°N, 71.4833°W)
Time: 20:56:16
(UTC+00:00)

Courier 1B Rocket - Visible Passes

Search period start: 29 January 2020 00:00
Search period end: 08 February 2020 00:00
Orbit: 920 x 1202 km, 28.2° (Epoch: 28 January)

Date Brightness Start Highest point End Pass type
(mag) Time Alt. Az. Time Alt. Az. Time Alt. Az.
03 Feb 7.9 10:52:30 10° S 10:55:01 12° SSE 10:57:33 10° SE visible
05 Feb 7.6 10:41:21 10° SSW 10:45:46 16° SSE 10:50:13 10° ESE visible
06 Feb 7.7 09:42:29 10° S 09:44:55 12° SSE 09:47:24 10° SE visible
07 Feb 7.4 10:31:14 10° SSW 10:36:32 20° SSE 10:41:57 10° ESE visible
